Overview Statistics Trail Chart Weather Telemetry Raw packets
 

This is the latest recevied weather packets stored in our database for station/object OK2ZAW-21. If no packets are shown the sender has not sent any weather packets the latest 10 day(s).

<< 79 80 81 82 83 84 85 >>
Time Temp. Humidity Pressure Rain* Wind** Luminosity Snow
1788089166 26.67° C 46% 1019.6 hPa - - 424 W/m² -
1788088854 26.11° C 48% 1019.8 hPa - - 423 W/m² -
1788088542 25.56° C 48% 1019.8 hPa - - 424 W/m² -
1788088230 26.11° C 48% 1019.8 hPa - - 424 W/m² -
1788087918 24.44° C 50% 1019.8 hPa - - 424 W/m² -
1788087607 23.89° C 51% 1019.9 hPa - - 424 W/m² -
1788087295 24.44° C 51% 1019.8 hPa - - 424 W/m² -
1788086983 25° C 49% 1020 hPa - - 424 W/m² -
1788086360 23.33° C 52% 1020.1 hPa - - 425 W/m² -
1788086048 23.89° C 53% 1020.1 hPa - - 425 W/m² -
1788085736 22.78° C 55% 1020.2 hPa - - 425 W/m² -
1788085425 23.33° C 55% 1020.2 hPa - - 425 W/m² -
1788085115 23.89° C 51% 1020.1 hPa - - 425 W/m² -
1788084801 25° C 51% 1020.1 hPa - - 425 W/m² -
1788084489 23.89° C 52% 1020.2 hPa - - 425 W/m² -
1788084178 23.33° C 54% 1020.3 hPa - - 425 W/m² -
1788083866 25° C 50% 1020.3 hPa - - 426 W/m² -
1788083554 25° C 53% 1020.4 hPa - - 426 W/m² -
1788083242 25.56° C 51% 1020.3 hPa - - 426 W/m² -
1788082930 23.89° C 54% 1020.4 hPa - - 426 W/m² -
1788082619 25° C 52% 1020.4 hPa - - 426 W/m² -
1788082307 25° C 53% 1020.4 hPa - - 426 W/m² -
1788081995 24.44° C 55% 1020.5 hPa - - 426 W/m² -
1788081684 24.44° C 55% 1020.5 hPa - - 427 W/m² -
1788081372 24.44° C 57% 1020.6 hPa - - 427 W/m² -

* Rain since midnight (hover to see other rain measurements)
** Current wind speed in m/s (hover to see current wind gust speed)